This is the latest recevied weather packets stored in our database for station/object DO1SN-13. If no packets are shown the sender has not sent any weather packets the latest 10 day(s).
| Time | Temp. | Humidity | Pressure | Rain* | Wind** | Luminosity | Snow |
|---|---|---|---|---|---|---|---|
| 1787741762 | 29.44° C | - | 1019.9 hPa | 0 mm | - | - | - |
| 1787741396 | 29.44° C | - | 1020 hPa | 0 mm | - | - | - |
| 1787741032 | 30° C | - | 1019.9 hPa | 0 mm | - | - | - |
| 1787740668 | 31.11° C | - | 1019.9 hPa | 0 mm | - | - | - |
| 1787740304 | 28.33° C | - | 1019.9 hPa | 0 mm | - | - | - |
| 1787739940 | 29.44° C | - | 1020 hPa | 0 mm | - | - | - |
| 1787739575 | 29.44° C | - | 1020 hPa | 0 mm | - | - | - |
| 1787739211 | 28.89° C | - | 1020 hPa | 0 mm | - | - | - |
| 1787738847 | 28.89° C | - | 1020.1 hPa | 0 mm | - | - | - |
| 1787738483 | 29.44° C | - | 1020.1 hPa | 0 mm | - | - | - |
| 1787738119 | 30.56° C | - | 1020.3 hPa | 0 mm | - | - | - |
| 1787737755 | 30° C | - | 1020.3 hPa | 0 mm | - | - | - |
| 1787737391 | 30.56° C | - | 1020.4 hPa | 0 mm | - | - | - |
| 1787737026 | 30.56° C | - | 1020.4 hPa | 0 mm | - | - | - |
| 1787736662 | 32.78° C | - | 1020.3 hPa | 0 mm | - | - | - |
| 1787736298 | 32.78° C | - | 1020.3 hPa | 0 mm | - | - | - |
| 1787735934 | 31.67° C | - | 1020.5 hPa | 0 mm | - | - | - |
| 1787735570 | 30° C | - | 1020.3 hPa | 0 mm | - | - | - |
| 1787735206 | 30° C | - | 1020.4 hPa | 0 mm | - | - | - |
| 1787734842 | 30.56° C | - | 1020.5 hPa | 0 mm | - | - | - |
| 1787734477 | 28.89° C | - | 1020.4 hPa | 0 mm | - | - | - |
| 1787734113 | 28.33° C | - | 1020.4 hPa | 0 mm | - | - | - |
| 1787733749 | 28.33° C | - | 1020.3 hPa | 0 mm | - | - | - |
| 1787733384 | 30.56° C | - | 1020.2 hPa | 0 mm | - | - | - |
| 1787733020 | 31.11° C | - | 1020.2 hPa | 0 mm | - | - | - |
* Rain latest hour (hover to see other rain measurements)
** Current wind speed in m/s (hover to see current wind gust speed)